Wind_Speed
32 34 35 36 35 33 31 29 29 29 28 27 25 24 23 22 22 21 20 19 18 19 19 19 19 19 19 19 18 17 15 13 11 10 9 8 7 7 7 7 6 6 6 6 6 5 6 7 7 7 7 8 8 7 6 6 6 6 6 4 4 3 2 2 2 2 3 4 5 5 6 7 8 9 10 11 13 14 15 15 16 16 17 19 20
31 33 35 36 36 35 34 32 31 30 29 28 27 26 24 23 22 21 20 19 19 19 19 20 20 20 21 21 20 18 16 14 12 10 10 9 9 8 8 8 7 7 8 7 7 6 7 8 8 8 8 8 8 8 7 6 6 6 5 5 4 3 2 1 1 2 3 3 4 4 5 5 7 8 10 12 13 14 14 15 16 19 22 24 22
31 32 33 35 36 37 36 34 32 31 30 29 28 27 26 25 24 22 21 21 21 21 20 21 21 22 22 22 21 19 17 15 13 12 11 10 10 9 9 9 8 8 8 8 8 7 7 8 8 8 9 9 9 8 7 6 5 6 6 5 4 4 3 2 2 2 3 4 4 4 5 5 7 9 10 12 13 14 15 16 18 21 23 22 18
31 32 32 34 36 37 37 35 33 32 30 30 29 28 28 26 25 24 24 24 24 23 22 22 22 23 23 24 23 21 18 16 14 13 12 11 10 10 10 10 10 9 9 9 8 8 8 8 9 9 9 9 8 8 6 5 5 6 6 5 5 5 3 3 3 3 4 4 5 5 5 5 7 8 9 11 13 14 16 18 21 24 23 20 16
31 32 32 34 36 37 37 37 35 33 31 31 31 30 29 28 27 26 26 26 25 25 23 23 23 24 25 25 25 23 21 18 15 13 12 11 11 11 11 11 11 10 9 9 9 9 8 8 9 9 9 8 8 7 6 5 5 6 6 6 6 6 4 4 5 5 4 4 4 4 4 5 7 8 8 10 13 16 18 20 22 22 19 17 17
29 32 33 34 34 35 36 37 35 34 33 32 32 32 31 29 29 28 28 27 26 26 25 24 25 26 27 27 27 25 23 20 17 14 13 12 12 12 11 12 12 11 10 10 10 9 9 8 8 9 9 9 7 7 7 6 6 7 7 7 7 6 6 6 6 6 5 4 3 4 5 6 7 9 9 11 14 17 18 19 20 18 16 16 18
28 31 33 34 34 34 35 35 35 35 34 34 34 33 32 31 30 30 30 28 27 27 27 26 26 27 28 29 28 27 24 21 18 16 14 13 13 13 12 13 13 12 11 11 10 10 9 9 8 8 10 9 7 7 8 7 7 7 8 8 8 7 7 7 7 6 5 4 4 5 7 7 8 9 9 11 15 16 16 16 17 17 17 18 20
27 30 33 34 33 33 34 35 35 35 35 35 35 35 33 32 31 31 31 29 29 28 28 28 28 28 29 30 29 28 25 22 19 17 15 15 14 14 13 13 14 13 12 11 11 10 9 9 8 8 9 9 7 7 9 9 9 9 9 9 9 9 8 8 7 6 5 4 4 6 7 9 9 9 10 12 14 14 15 16 16 17 18 18 20
26 29 32 33 32 32 33 34 35 35 36 36 36 35 35 34 32 32 31 30 30 30 30 30 29 29 29 30 29 28 25 22 20 18 17 16 15 14 13 13 14 14 13 11 10 10 9 10 9 8 9 9 7 8 10 11 10 10 10 11 10 9 9 8 7 6 5 5 5 6 7 9 10 10 11 13 14 13 13 15 16 17 17 17 19
26 27 30 31 32 33 33 34 34 34 35 36 36 36 36 36 34 33 31 31 32 31 31 31 30 30 30 30 29 27 25 23 21 20 19 17 16 15 14 14 14 13 13 12 11 11 10 9 9 9 10 9 8 9 10 11 11 11 12 12 11 10 9 9 7 6 6 5 6 7 7 9 10 10 11 13 14 12 10 12 14 15 16 17 18
25 26 28 31 32 33 33 33 33 33 34 35 36 36 37 36 36 34 33 33 32 32 32 32 31 31 31 30 29 27 25 24 23 22 20 18 16 15 15 15 14 13 13 13 12 12 11 10 9 9 10 10 10 10 11 11 11 12 13 13 12 11 11 10 9 8 7 6 7 8 8 9 10 11 12 13 15 15 11 10 12 15 16 17 18
25 25 27 30 31 32 32 32 32 33 33 33 34 36 37 37 36 36 35 34 33 32 32 32 32 32 32 31 30 27 26 25 24 23 21 19 16 16 15 15 14 13 13 13 13 13 12 11 10 10 11 11 11 11 12 11 11 12 14 14 13 13 12 11 10 9 8 7 8 8 9 10 11 13 13 13 16 18 15 10 11 15 16 18 19
28 26 27 28 29 30 31 32 32 32 32 32 33 34 35 36 36 36 36 35 35 33 32 32 33 33 33 32 31 29 28 26 25 24 23 20 18 16 16 15 14 13 13 13 13 13 13 12 11 11 12 12 12 12 12 11 11 12 14 15 15 14 14 13 12 10 9 8 8 10 11 11 12 14 15 14 16 20 18 13 12 15 17 19 21
31 29 26 25 26 28 29 31 31 32 32 32 32 33 33 34 35 36 36 36 35 34 33 32 32 33 33 33 33 31 30 27 26 25 24 22 19 17 16 15 14 14 14 14 14 13 13 13 12 12 12 13 13 13 13 11 11 11 14 16 16 16 15 14 12 11 11 10 10 11 12 13 14 16 17 16 16 19 19 15 14 16 18 20 22
34 31 28 25 24 25 27 29 30 31 32 32 32 32 32 32 34 35 36 36 35 34 34 33 32 32 33 33 34 33 31 29 28 27 25 23 21 19 17 15 15 15 15 15 14 14 14 14 13 13 13 13 14 14 13 11 10 11 13 16 17 17 16 15 14 13 13 13 12 12 13 15 16 17 18 18 16 17 18 16 16 17 20 21 23
35 33 29 26 24 24 25 27 29 29 30 31 31 31 31 31 32 34 35 35 35 35 34 33 32 32 32 32 33 33 33 31 29 29 28 25 22 20 17 16 16 16 16 16 16 15 15 14 14 13 13 14 15 14 13 12 11 11 12 14 16 17 17 16 15 16 16 15 15 14 15 17 17 17 19 19 17 16 17 17 18 19 21 23 24
35 33 30 27 26 25 26 26 27 28 28 29 30 31 31 31 32 33 34 34 35 35 35 34 33 32 32 32 32 32 32 31 31 31 30 26 23 21 19 17 17 17 18 18 17 16 15 15 14 14 14 15 15 15 14 13 12 12 12 13 14 16 17 17 17 18 18 18 18 18 18 19 20 19 19 20 19 18 18 19 20 20 21 25 26
35 32 31 30 28 27 28 27 27 27 27 28 29 31 32 32 32 32 33 34 34 34 35 35 34 33 33 32 31 32 32 31 31 31 30 27 24 22 20 19 19 19 20 19 19 17 17 16 15 14 14 15 16 15 15 13 13 14 14 13 13 14 16 18 19 19 19 20 20 20 20 22 22 21 21 22 23 22 21 21 21 20 21 25 27
35 32 32 32 31 30 30 28 27 26 26 27 29 30 32 32 32 32 33 34 34 35 35 35 34 33 33 32 31 31 32 31 30 30 30 27 24 23 22 21 21 21 21 21 21 19 18 18 17 16 15 16 17 16 16 14 13 15 16 16 15 16 17 19 20 20 20 21 22 22 22 23 23 23 24 25 26 25 24 23 22 21 23 26 27
35 34 34 35 34 32 31 30 27 25 25 27 29 30 31 33 33 33 33 34 34 34 34 34 33 33 33 32 31 31 31 30 29 29 28 26 25 24 24 23 22 23 23 23 22 21 21 20 19 18 17 17 17 17 17 15 14 16 17 18 19 20 20 20 20 21 22 23 24 25 25 25 24 24 25 26 27 27 28 27 25 24 26 27 28
38 37 36 37 36 33 32 30 28 26 26 28 30 30 31 32 33 33 34 34 33 32 32 32 32 33 32 32 31 30 30 30 28 27 27 26 26 26 25 24 24 25 25 24 23 23 23 22 21 20 19 19 18 18 17 16 16 17 18 20 21 23 24 23 23 23 24 25 26 28 29 28 27 26 26 26 27 28 30 30 27 27 29 29 28
41 39 38 39 37 34 33 32 29 28 28 29 30 30 30 32 33 33 33 33 32 31 31 31 31 31 31 31 30 29 30 29 27 27 27 27 27 26 26 25 26 26 26 25 25 24 24 24 22 21 21 20 20 19 18 17 18 19 20 22 24 25 25 26 26 26 26 26 28 29 30 30 30 29 27 27 28 30 31 30 28 29 30 30 30
43 41 40 39 36 34 34 33 30 28 28 29 30 29 29 31 32 32 32 32 31 30 30 30 30 30 30 29 29 29 29 28 27 26 27 27 27 26 26 26 26 26 26 26 26 25 25 24 23 22 21 21 22 21 19 19 20 22 24 25 26 26 27 28 28 28 27 27 29 30 31 32 31 30 29 29 30 30 29 29 30 32 32 32 32
45 43 40 37 35 35 35 33 30 29 29 29 29 29 29 29 30 31 31 31 30 30 30 30 30 30 29 28 28 28 28 28 27 26 26 27 26 26 27 26 26 26 26 26 26 25 24 23 21 21 21 22 23 23 22 21 22 24 26 27 28 28 29 30 30 29 28 29 31 32 33 33 32 30 29 29 30 29 29 31 33 34 34 34 35
47 44 40 37 35 35 35 32 30 29 28 29 29 28 28 29 29 29 30 30 30 30 30 29 29 28 28 28 27 27 27 27 27 26 26 27 27 27 27 26 26 26 26 25 24 23 21 21 21 21 22 23 24 25 25 24 24 25 26 28 28 29 31 31 32 31 30 31 33 34 34 34 33 31 29 29 29 30 32 34 34 34 36 38 37
49 46 42 39 37 36 34 31 29 29 28 28 27 27 27 28 28 29 30 30 30 29 28 28 27 27 28 28 28 27 28 27 27 27 28 28 28 27 27 26 26 25 25 23 22 20 20 20 20 21 22 23 25 26 26 27 27 27 28 29 30 31 33 33 33 33 33 33 34 34 35 34 31 29 28 28 29 31 33 33 34 35 37 38 37
49 46 43 41 39 36 32 30 29 28 27 27 26 26 27 28 28 29 30 29 29 28 27 26 26 27 28 28 28 28 28 28 28 28 28 28 27 27 26 25 25 24 23 21 20 19 19 18 18 18 19 21 22 24 25 26 27 28 29 30 31 33 34 33 33 34 35 35 35 34 33 31 29 27 28 29 29 31 32 33 34 35 35 35 35
49 46 44 43 39 35 31 30 29 28 27 26 27 27 28 28 28 29 29 29 28 27 27 27 27 28 28 28 29 29 28 28 29 29 28 27 26 25 24 24 23 22 20 19 19 19 19 18 18 18 18 19 21 22 22 23 25 26 27 27 29 30 31 30 31 33 34 34 33 32 30 28 27 28 30 30 30 31 33 34 34 35 35 35 36
49 47 45 43 39 35 32 30 29 28 28 28 28 28 28 29 29 29 29 29 29 28 28 28 29 29 29 29 29 29 29 28 28 28 27 25 25 23 22 21 20 19 19 19 20 20 20 20 21 21 21 21 23 23 23 23 25 27 27 27 28 29 28 28 29 29 30 30 30 29 29 29 29 30 31 32 32 33 35 35 35 35 36 37 39
50 47 45 42 38 35 32 31 31 30 30 29 29 29 29 29 29 28 28 28 27 28 28 29 29 30 30 30 29 29 29 28 28 27 26 25 24 22 21 20 20 20 21 23 23 23 23 23 24 24 24 25 26 26 26 26 28 30 31 31 32 31 30 30 31 30 30 30 30 31 31 32 32 32 32 33 33 34 35 35 36 37 39 40 42
50 46 43 40 37 35 33 33 33 32 31 30 30 30 30 30 30 29 29 28 29 30 30 30 30 31 31 30 30 30 30 28 28 27 26 25 24 23 22 22 23 24 26 26 26 26 26 27 27 28 28 29 30 30 30 30 31 33 34 33 34 34 33 33 34 34 33 33 34 35 35 34 34 34 34 34 35 34 34 35 37 39 41 43 45
48 44 40 38 37 36 35 35 35 34 32 31 31 32 32 32 32 31 31 31 32 32 32 32 32 33 32 31 31 31 30 29 28 27 27 26 26 26 26 27 28 29 30 29 29 28 28 28 29 30 31 32 33 34 35 34 35 36 36 36 36 36 35 35 37 39 40 39 36 35 33 33 35 36 36 36 35 35 36 38 40 41 43 45 46
45 42 40 39 38 37 37 37 36 36 34 32 33 34 34 34 34 34 33 34 34 34 35 34 34 34 33 33 33 33 32 31 30 30 29 30 31 31 30 31 32 33 33 32 31 31 31 30 31 32 33 35 36 38 39 38 37 38 38 37 37 37 38 38 40 42 44 44 40 35 32 33 36 37 37 37 37 37 39 41 42 44 46 47 47
44 42 41 40 39 38 39 39 38 37 37 36 36 36 36 36 36 35 35 36 37 37 37 37 36 36 35 35 35 35 35 34 34 34 34 35 35 35 34 34 35 35 35 35 34 34 33 33 33 34 35 36 38 40 40 39 38 38 37 36 37 37 38 39 40 40 41 42 41 37 34 35 37 38 39 39 39 40 42 44 45 46 47 48 48
45 43 41 40 40 40 41 41 40 41 41 40 38 38 38 37 36 37 38 39 39 39 39 39 39 38 38 37 37 37 37 38 38 38 38 38 38 38 38 37 37 37 37 37 36 36 35 35 35 36 37 38 39 39 38 36 36 37 36 36 37 38 38 39 40 39 38 39 38 36 35 36 39 40 41 41 42 43 45 46 47 47 48 49 49
46 44 42 41 42 43 43 43 44 45 44 42 40 39 38 36 36 39 41 40 40 41 42 42 42 41 41 41 40 39 39 40 40 41 41 41 41 41 41 40 40 40 40 40 40 38 37 37 37 37 38 39 38 36 35 34 35 35 35 35 36 38 40 41 40 38 36 36 36 36 37 39 40 41 42 43 44 45 46 47 47 48 49 50 51
46 44 42 41 41 42 44 45 45 45 45 43 42 40 38 36 37 39 41 41 42 43 44 45 45 45 45 46 45 43 43 43 43 44 44 44 44 44 43 43 43 43 43 43 41 39 38 38 39 39 39 38 36 35 35 35 34 34 35 34 35 38 40 41 39 37 35 35 36 37 39 41 42 43 44 45 45 46 47 47 48 49 50 51 52
47 44 42 41 40 40 42 42 43 43 44 44 43 40 38 37 37 37 38 41 44 45 46 47 48 48 49 49 48 46 46 47 48 48 48 47 46 46 46 47 48 47 45 42 40 39 38 39 40 40 39 36 35 36 37 36 35 36 35 32 32 35 37 37 37 37 36 36 37 39 41 44 44 45 46 46 47 48 48 49 50 51 52 53 54
48 47 44 43 42 42 42 41 42 42 43 43 43 41 39 38 38 37 38 41 42 43 43 45 46 48 49 51 51 50 49 49 49 49 48 48 47 47 50 52 52 48 44 42 40 40 40 41 41 40 38 36 36 37 37 36 36 38 37 33 33 35 36 36 38 39 39 40 41 42 44 45 46 46 47 48 49 49 50 51 52 53 54 55 56
50 50 49 49 48 47 47 45 44 44 44 44 44 43 42 41 40 40 41 41 40 40 40 40 42 43 45 48 50 51 51 51 51 50 50 50 50 50 52 53 53 49 45 42 41 41 41 42 42 41 39 37 37 37 38 37 37 38 38 38 38 39 39 40 40 41 42 43 44 45 46 47 47 48 49 50 51 51 52 54 54 55 56 57 57
51 51 51 51 52 53 52 50 48 47 47 47 47 46 44 43 42 42 42 42 40 39 39 38 39 40 41 42 44 45 46 48 50 51 51 52 51 49 47 46 48 48 45 43 43 43 43 42 42 41 40 39 39 38 38 38 39 39 40 41 41 41 42 42 43 43 44 45 46 47 48 49 50 51 52 52 53 54 54 55 56 57 58 59 59
53 52 52 52 53 55 55 54 52 52 51 51 49 47 46 45 44 44 44 43 41 39 39 40 41 42 42 42 42 41 42 43 45 46 48 48 47 45 43 42 43 45 44 44 45 44 43 42 42 41 41 41 41 40 39 39 40 40 41 41 42 43 43 43 44 45 46 47 49 50 50 51 52 52 53 54 54 55 56 56 57 58 59 60 60
57 55 53 53 55 59 60 58 55 54 54 53 51 50 48 47 47 47 47 45 44 43 43 43 43 43 43 43 42 42 42 42 43 44 44 45 45 44 43 43 44 44 45 45 45 44 43 43 43 43 43 43 42 42 42 42 42 42 42 42 43 44 44 45 46 47 49 50 51 52 52 53 54 54 54 55 55 56 57 57 58 59 60 60 60
59 57 55 55 57 60 61 59 55 53 53 54 54 52 50 49 49 50 50 49 48 47 46 45 44 44 44 44 43 42 42 42 42 42 43 43 43 43 44 44 44 44 44 44 44 44 44 44 44 44 44 44 44 44 44 44 45 45 45 45 46 46 47 48 49 50 51 52 53 54 54 54 55 55 55 56 56 57 58 59 59 59 59 59 60
60 58 57 57 57 58 59 58 56 54 53 53 55 55 51 51 53 54 53 53 52 51 49 47 45 45 45 44 43 43 43 42 42 42 43 43 43 43 43 44 44 44 44 44 45 45 45 45 45 45 45 46 46 46 46 46 47 47 47 48 48 49 50 51 52 53 53 53 54 54 55 55 55 55 56 57 57 58 58 59 59 59 59 60 61
62 59 59 59 58 57 57 58 59 59 56 55 57 57 54 52 54 55 53 51 51 50 48 46 44 44 45 46 46 46 45 44 43 43 43 43 44 44 44 44 44 44 45 44 44 45 45 45 46 46 47 47 47 48 48 48 48 49 49 50 51 51 52 53 53 53 54 54 54 55 55 55 56 56 57 57 57 57 58 58 59 60 61 62 63
62 59 57 58 58 59 58 57 59 63 62 57 56 57 55 51 51 51 49 47 45 44 43 43 43 43 44 46 48 48 47 46 45 44 45 45 45 45 45 45 44 44 44 45 45 46 46 47 47 48 48 49 49 49 50 50 51 51 52 52 52 53 53 53 53 54 54 55 55 56 56 56 56 56 56 56 57 58 59 60 61 63 64 65 66
63 59 57 57 59 62 63 61 60 62 62 57 53 56 57 54 52 51 50 46 43 41 41 42 41 41 43 46 48 48 47 46 45 45 45 45 45 44 44 45 45 46 46 47 48 48 48 49 49 50 50 51 51 52 53 53 53 54 54 54 54 54 54 55 55 55 56 56 56 56 56 56 55 56 57 58 59 61 62 63 64 65 66 67 67
67 64 62 60 60 63 66 64 60 60 60 57 55 56 57 55 52 52 51 47 44 43 42 42 41 41 43 46 47 47 47 46 45 45 46 46 47 47 46 47 47 48 49 49 50 50 50 51 51 51 52 53 54 54 55 55 55 55 55 56 56 56 56 57 57 57 57 56 56 55 55 56 57 58 59 60 61 62 63 64 65 66 67 68 68
70 69 67 66 64 64 65 65 62 60 60 59 57 58 58 57 55 55 55 55 54 52 50 48 46 44 43 43 42 43 44 44 45 45 47 48 49 50 49 49 49 49 49 49 49 50 50 51 51 52 53 54 54 55 55 55 56 56 57 57 58 58 58 58 58 57 57 57 57 57 58 59 60 61 62 63 63 64 64 65 67 68 69 69 69
71 71 70 69 68 67 66 66 65 63 62 61 61 61 62 62 62 62 62 62 61 59 56 53 50 49 48 47 47 46 45 45 47 48 50 51 52 52 52 51 51 51 51 51 51 51 52 52 53 53 54 54 55 55 56 56 57 58 59 59 59 60 59 59 59 59 59 60 60 61 62 63 64 65 65 66 66 67 68 69 70 71 71 71 70
Wind_Direction
219 216 214 212 212 214 213 211 210 210 211 211 211 212 213 213 212 210 207 205 207 209 209 206 203 200 194 188 184 181 181 184 187 192 199 207 218 229 238 245 249 257 267 272 277 281 283 290 297 303 311 318 317 311 295 271 259 259 264 272 282 290 299 321 345 355 1 5 0 358 359 0 2 5 12 18 19 18 14 5 352 343 346 353 354
223 221 219 216 215 215 215 213 211 212 213 214 214 214 215 215 214 212 209 207 208 210 208 205 202 197 192 189 187 188 190 193 195 198 204 211 219 229 240 249 252 257 264 271 275 276 275 280 288 296 304 310 312 311 305 285 259 251 256 261 262 262 262 273 304 323 331 333 332 341 354 2 10 13 15 18 18 12 7 359 347 340 344 348 347
225 224 223 220 219 218 218 216 214 214 215 216 217 217 216 216 215 213 210 209 210 212 209 206 203 198 194 192 192 195 198 199 200 204 209 215 222 231 242 251 256 258 263 269 273 275 275 277 283 292 300 306 308 308 306 291 259 241 240 242 242 243 247 253 264 283 300 308 315 335 355 4 14 19 17 17 13 2 356 350 343 343 348 354 354
226 226 225 223 222 222 221 219 217 215 217 219 220 220 219 217 216 214 212 211 212 213 211 207 205 201 197 197 198 200 204 205 207 210 214 219 226 235 244 253 258 259 261 266 268 271 273 275 278 286 294 302 304 304 304 291 257 236 228 226 231 236 243 255 262 270 285 298 309 330 349 355 7 18 19 16 10 2 357 352 347 350 357 7 16
227 226 227 226 225 224 224 223 220 218 218 220 222 223 222 220 218 217 216 214 214 215 213 209 207 204 201 201 203 205 207 209 212 216 221 226 233 240 248 255 260 262 262 265 266 267 270 271 273 279 286 294 299 296 294 281 250 231 220 217 223 228 234 246 257 271 285 294 304 321 335 341 356 14 22 18 11 5 3 360 358 2 6 10 12
230 227 228 227 226 227 226 226 224 221 220 221 223 225 225 223 221 221 220 218 216 217 216 213 209 207 205 205 206 208 210 212 215 219 225 230 237 245 252 258 264 269 270 270 269 270 271 269 268 270 276 286 291 284 279 269 245 228 217 214 218 222 228 242 258 275 286 292 302 314 323 335 352 7 16 16 9 6 6 4 5 12 13 7 3
233 230 230 229 228 228 229 228 227 225 223 223 225 227 227 226 225 224 224 222 220 219 219 217 214 211 209 208 209 210 212 213 217 221 226 231 237 244 252 259 267 274 278 279 277 275 274 271 266 263 268 278 280 268 264 260 245 228 217 213 215 220 229 244 260 271 275 281 300 313 321 332 348 359 6 8 5 6 11 9 7 10 9 2 359
236 232 232 231 229 229 230 230 229 228 226 226 226 228 229 229 228 227 227 226 224 223 222 220 218 216 214 213 213 213 214 215 220 225 228 232 237 243 249 258 267 276 281 284 282 279 275 270 265 258 261 271 271 253 251 254 245 229 220 216 215 220 231 243 253 259 265 280 297 308 317 325 337 347 352 357 3 6 9 8 5 5 4 0 356
239 235 234 234 232 230 231 231 231 230 228 228 229 229 231 231 231 231 230 230 229 226 225 224 223 222 220 218 217 217 216 218 223 229 232 233 238 245 250 257 265 274 280 283 282 279 272 265 260 255 256 263 259 242 242 249 246 230 221 219 219 223 233 242 245 247 254 267 280 292 306 313 323 333 338 346 357 2 2 2 2 1 3 2 357
240 237 235 236 234 232 233 233 233 233 231 231 231 231 232 233 233 233 233 233 233 231 229 228 227 227 225 224 223 221 220 221 226 232 236 235 239 247 253 257 264 273 279 282 280 276 270 263 255 249 249 254 250 236 235 244 245 234 223 222 224 228 235 241 243 243 245 253 265 278 292 303 312 322 328 336 346 349 351 357 360 359 359 0 358
239 238 236 236 236 235 235 235 236 236 235 234 233 233 233 234 234 234 235 236 236 236 234 233 232 231 230 229 228 225 223 225 228 234 238 238 240 248 254 259 266 273 277 280 279 276 273 266 255 245 244 246 242 233 231 238 243 238 228 225 228 232 237 242 246 247 245 248 259 268 281 295 304 313 320 328 335 336 335 340 351 356 355 354 353
238 237 235 236 238 238 237 237 238 238 238 237 237 236 235 236 235 235 236 237 238 238 238 237 236 235 235 234 233 230 228 228 230 236 241 241 242 248 255 260 266 271 275 278 280 279 277 270 260 249 242 241 236 230 229 234 240 240 233 228 229 234 240 246 250 252 251 254 264 271 279 290 298 305 312 321 328 328 324 319 334 348 351 349 347
239 236 235 236 239 240 241 241 241 241 241 240 240 239 238 238 238 238 237 238 238 239 240 240 240 239 238 238 237 235 233 231 233 238 243 244 243 247 254 260 265 270 273 276 278 279 278 272 264 253 244 239 234 228 227 231 236 239 236 233 233 237 243 249 253 257 261 264 271 278 282 289 296 302 308 315 323 325 321 310 317 335 343 344 343
240 239 237 238 239 241 243 244 244 244 244 244 243 243 242 240 240 240 239 239 239 239 240 242 242 242 240 240 240 239 237 235 236 240 243 245 244 246 252 258 265 270 271 272 273 274 274 272 266 256 246 240 235 230 229 231 234 237 238 239 241 244 248 253 257 262 268 273 278 284 287 292 297 301 306 310 317 323 320 308 307 323 334 337 337
241 241 239 238 240 242 244 246 247 247 248 247 247 246 244 243 242 242 241 241 241 241 241 241 243 243 243 241 241 241 240 239 239 242 244 245 245 247 251 256 262 267 269 269 269 270 271 270 266 259 248 241 237 233 231 232 233 236 240 243 247 250 254 258 261 264 270 276 283 289 292 295 297 300 302 302 306 317 320 309 301 312 324 328 329
240 241 241 239 240 243 245 247 248 249 250 250 249 248 247 245 244 243 243 243 242 242 242 242 242 243 243 242 241 242 242 241 242 244 245 246 246 247 251 254 257 262 265 266 267 267 268 268 265 260 250 243 240 236 234 234 233 234 240 246 251 255 258 261 265 268 273 280 287 291 294 296 296 297 298 296 296 308 319 311 299 303 315 320 320
239 241 243 243 242 243 245 247 249 250 250 251 251 251 249 247 246 245 245 244 243 243 242 242 242 242 243 242 241 242 242 242 242 244 245 246 246 248 251 253 255 258 262 265 265 265 265 265 264 259 252 246 243 239 238 238 237 237 241 248 253 258 261 262 265 269 276 283 289 292 295 296 297 298 300 299 296 304 317 314 301 299 308 313 314
239 241 245 246 245 245 246 247 249 251 252 252 252 251 250 249 247 246 246 244 243 243 242 242 242 242 243 243 242 241 242 241 241 244 245 246 246 248 251 253 253 256 260 262 263 264 264 265 264 260 254 249 246 244 244 244 243 243 245 249 254 258 261 263 266 271 277 280 283 288 291 293 297 302 304 304 301 304 313 313 303 298 303 307 309
239 242 246 248 247 245 246 247 249 251 253 253 252 250 250 250 248 246 246 245 244 243 243 243 243 243 244 244 243 242 241 241 241 244 245 246 246 247 251 253 252 254 257 260 262 265 266 267 266 263 257 252 249 249 250 249 248 248 250 252 254 257 261 266 271 276 280 281 282 286 287 290 295 301 303 303 302 305 312 311 302 297 301 305 307
239 241 244 247 246 245 247 249 250 250 251 252 251 249 248 248 247 245 245 245 245 245 245 245 245 245 245 245 243 242 241 241 241 244 245 246 245 246 249 251 251 252 255 258 262 266 268 270 270 268 264 259 255 254 255 255 253 252 254 255 254 254 259 267 276 281 284 285 287 289 290 291 294 297 297 298 299 304 309 308 302 298 300 304 307
239 240 242 244 245 245 248 250 250 249 249 249 249 248 247 246 245 245 244 245 246 246 247 247 246 245 245 244 243 241 241 240 241 243 245 244 244 245 248 251 251 252 255 258 263 267 271 273 274 273 271 267 262 260 260 260 258 256 257 258 256 255 259 266 274 281 285 288 289 291 292 294 295 295 295 296 298 302 305 303 299 298 300 303 306
240 241 242 244 244 246 249 250 249 249 248 247 248 249 247 245 244 244 244 245 246 247 247 247 246 245 244 243 241 239 239 241 241 242 244 243 243 245 248 250 251 254 257 261 266 269 272 274 275 275 274 271 268 265 263 261 261 260 259 258 258 260 263 268 272 277 283 288 289 290 292 294 294 295 295 296 300 303 302 298 295 296 299 302 307
240 241 242 244 244 246 249 250 250 249 248 247 247 247 246 245 243 243 245 246 246 247 247 246 245 244 242 240 238 237 239 241 242 241 242 242 242 244 247 249 251 256 260 265 269 272 274 275 275 274 271 270 269 267 262 258 258 259 260 260 262 265 268 271 272 276 281 285 287 288 290 291 293 295 296 298 301 302 299 295 294 296 298 301 307
238 239 241 242 243 245 248 249 250 250 248 246 245 244 243 243 243 242 244 245 245 245 245 244 243 241 238 237 237 237 239 242 242 241 240 241 242 243 246 248 251 257 263 268 272 274 276 275 272 268 264 262 262 263 261 257 255 256 258 261 264 267 270 272 274 276 279 283 285 286 288 291 294 296 297 298 299 299 297 296 298 298 298 299 304
234 236 239 241 242 245 248 249 250 249 247 245 244 242 241 242 242 241 242 243 243 243 242 241 239 236 234 234 235 237 239 240 240 237 236 238 240 242 245 249 252 258 264 268 270 272 270 267 265 264 261 259 259 261 261 260 259 259 260 262 265 268 270 272 273 275 278 281 283 286 289 292 294 295 294 295 298 301 301 301 303 305 304 301 301
231 234 237 240 243 245 247 248 248 247 245 244 242 240 240 240 240 239 239 239 239 238 237 235 232 230 230 232 235 237 237 237 235 234 234 237 241 244 247 251 254 257 261 263 265 266 265 264 265 265 263 262 263 265 266 266 265 264 264 264 264 265 266 269 272 276 279 281 284 287 288 289 290 290 292 295 300 304 305 305 307 310 310 306 301
229 232 235 239 242 245 245 244 245 244 244 243 241 240 240 239 238 237 237 237 236 234 232 230 229 229 230 232 234 235 234 234 233 234 236 240 244 248 250 252 254 256 258 259 261 264 266 269 271 270 269 269 269 271 273 274 274 274 272 271 270 269 270 272 274 277 279 281 283 284 284 285 287 290 292 295 299 303 304 305 306 306 307 306 302
227 230 234 238 241 241 240 240 242 243 242 241 239 238 238 237 236 235 235 235 234 232 230 229 228 228 229 231 232 232 232 232 234 237 240 243 246 248 249 250 253 255 256 258 261 264 267 271 275 278 281 281 281 281 280 281 281 281 281 282 281 280 279 278 276 276 279 281 282 282 283 286 290 295 297 298 299 301 302 303 304 303 302 301 301
226 229 233 237 238 236 236 238 240 241 240 239 237 237 237 237 236 235 235 235 235 232 230 230 228 228 227 227 228 230 231 233 236 240 242 242 242 244 246 249 253 256 258 261 265 268 272 276 278 281 285 286 287 287 288 288 286 285 284 285 284 284 284 284 282 281 282 282 281 282 284 287 291 295 298 299 297 297 298 300 301 301 301 301 302
226 228 232 235 235 233 235 237 239 239 239 238 236 236 236 236 235 234 234 234 234 232 230 229 229 229 229 228 229 232 235 236 238 240 240 239 240 243 246 248 250 253 257 263 268 272 275 277 279 282 285 287 288 289 290 289 287 285 284 283 281 282 284 285 286 287 286 284 282 282 283 287 292 295 295 294 292 292 294 296 298 300 303 305 306
225 229 232 233 232 232 234 236 238 239 240 239 238 237 235 234 233 232 230 229 229 229 228 227 228 230 231 230 231 234 237 237 238 239 239 239 241 243 245 246 249 252 256 261 266 270 272 274 276 280 283 286 288 288 288 287 285 285 285 284 282 281 282 283 285 285 283 280 280 280 281 284 288 290 290 290 291 292 294 297 299 302 306 307 308
225 229 232 231 230 231 234 236 237 239 241 240 239 238 236 234 233 231 229 228 228 229 229 228 229 230 231 231 232 235 237 238 240 240 240 241 242 244 245 248 252 256 259 262 266 268 270 272 275 278 281 284 286 286 287 286 286 285 284 282 281 281 282 283 283 281 279 277 276 277 281 285 289 291 293 293 294 296 298 301 303 305 307 307 308
226 229 231 231 231 231 234 236 238 241 242 242 240 239 237 235 234 233 232 231 230 230 230 231 231 232 232 233 234 236 238 241 242 243 244 245 246 248 249 251 254 258 262 265 267 269 271 274 276 279 281 283 285 286 287 286 284 282 280 279 280 279 280 280 281 282 285 287 286 287 292 294 294 295 295 295 296 298 300 302 304 305 306 306 306
228 230 232 232 232 233 235 237 239 242 243 242 242 240 238 237 236 235 234 233 232 232 232 232 233 234 235 235 236 238 240 242 244 245 246 247 249 251 253 254 255 259 262 265 267 270 272 275 276 279 281 284 285 286 285 284 281 278 276 276 276 275 276 277 278 281 287 291 291 293 296 295 293 292 293 294 296 298 300 301 303 304 304 304 305
228 230 231 233 233 233 235 236 237 240 241 242 243 242 241 241 241 239 237 236 235 234 234 234 235 235 236 237 239 240 242 243 244 246 247 249 250 252 254 255 257 260 263 265 267 269 271 273 276 279 282 284 285 284 281 280 278 275 273 272 272 271 272 272 274 278 283 287 289 290 291 290 289 290 292 294 296 298 299 300 301 302 302 303 303
227 228 229 231 231 231 233 234 235 237 239 240 242 243 243 244 245 244 242 240 238 236 235 235 235 236 237 237 239 241 242 244 245 246 248 250 252 253 255 257 259 260 262 263 266 268 270 273 276 280 282 282 282 280 277 277 277 275 272 270 271 272 273 273 274 278 282 283 284 285 286 287 288 289 291 293 295 296 297 298 299 299 300 301 301
226 227 228 229 230 231 232 234 235 238 240 241 242 242 244 245 246 246 245 242 240 238 237 237 236 237 237 238 238 239 241 243 245 247 248 250 252 254 256 257 258 259 261 263 266 269 272 275 278 279 280 280 279 277 276 276 277 276 274 274 276 278 279 279 281 281 280 279 279 282 284 286 288 289 290 292 293 294 296 296 297 297 298 299 300
225 227 228 229 230 232 233 235 236 238 241 243 243 243 243 244 245 245 243 241 240 239 239 239 240 240 241 242 243 244 244 244 245 248 250 252 254 255 256 257 257 258 260 264 268 271 274 276 277 278 279 277 275 275 275 274 273 275 276 276 275 275 276 277 279 279 279 279 281 283 285 286 287 288 289 291 292 294 295 295 296 297 297 298 299
225 227 228 230 232 234 235 235 236 238 240 242 244 244 244 244 244 243 241 240 240 241 241 242 244 245 246 247 249 250 250 249 250 252 253 255 257 259 260 259 258 258 261 265 269 272 275 276 277 276 275 273 271 272 273 272 271 273 276 274 272 271 272 274 276 278 280 281 282 284 284 285 286 288 289 290 292 293 294 294 295 296 297 298 299
226 226 227 229 232 234 235 235 236 236 238 241 243 244 245 245 245 244 242 241 241 242 243 244 245 247 249 249 250 251 252 253 254 255 256 257 260 264 265 262 259 261 266 269 270 272 274 274 274 273 270 269 269 270 271 271 272 273 275 275 274 274 274 276 277 279 280 281 282 283 285 286 287 288 289 290 291 292 293 294 295 296 297 298 298
228 229 229 230 231 232 234 236 237 238 239 241 243 243 246 247 247 246 246 245 244 244 245 247 248 249 250 250 251 251 252 253 254 255 257 258 260 264 266 262 259 262 267 269 269 271 272 271 270 269 267 267 268 268 269 270 271 272 273 274 275 275 276 277 278 279 280 281 282 284 285 285 286 287 289 290 291 292 293 294 295 296 296 297 298
228 229 231 233 234 234 234 234 237 240 242 242 242 242 244 247 248 248 248 247 247 248 249 250 251 251 252 252 252 252 253 253 253 254 256 257 258 259 261 260 260 262 265 267 268 269 268 266 265 265 265 266 268 268 268 269 269 270 271 272 272 273 274 275 276 277 278 279 281 283 284 285 285 287 288 289 290 291 292 293 294 295 296 298 298
226 228 230 233 236 237 233 230 233 238 242 243 243 242 242 244 246 248 248 247 248 249 249 250 252 254 255 255 254 254 253 253 253 253 254 254 255 256 257 258 259 261 263 264 265 265 264 263 262 263 264 265 267 268 268 269 269 270 270 271 271 272 273 274 274 275 277 279 281 282 283 284 285 286 287 289 290 291 292 293 294 295 296 297 298
226 227 229 232 237 239 235 231 231 235 239 243 245 244 243 245 248 248 246 245 246 248 249 251 253 255 256 256 255 255 254 253 252 252 252 252 253 254 255 256 257 258 259 260 261 260 260 261 262 263 264 265 265 266 267 268 269 270 271 271 272 273 274 274 275 276 277 279 281 282 283 284 285 286 288 289 290 291 292 293 294 295 295 296 296
225 228 229 231 235 239 239 239 239 237 237 241 243 243 244 249 251 247 244 245 246 247 247 250 252 255 256 255 255 254 253 252 251 251 250 251 251 252 253 254 255 256 256 257 258 259 260 261 262 263 264 265 266 266 267 268 269 270 271 271 272 273 273 274 275 276 278 279 280 281 282 284 285 286 288 289 289 290 291 292 293 294 294 295 296
222 226 231 232 234 237 240 243 243 241 239 241 242 242 243 247 246 242 240 243 245 244 244 247 250 252 253 252 252 252 251 251 250 250 250 251 252 253 253 254 254 254 255 256 258 260 261 262 264 265 265 266 267 268 269 269 270 270 271 271 272 272 273 274 275 276 277 278 279 280 282 283 285 286 287 288 289 290 291 292 293 294 294 295 295
222 224 230 234 236 238 239 242 244 243 239 239 242 243 242 241 241 240 238 240 241 241 240 242 245 246 246 247 248 249 250 250 249 249 250 252 253 253 254 254 255 256 257 258 260 262 263 264 265 265 266 267 267 267 268 269 269 270 270 271 272 272 273 274 274 275 276 278 279 281 282 283 284 285 287 288 290 291 292 292 293 293 294 294 294
230 229 232 236 239 239 239 239 241 239 235 236 244 248 244 239 239 242 243 242 242 240 237 238 241 243 242 242 242 244 246 248 248 249 250 252 253 254 255 256 257 258 259 259 260 262 263 264 264 265 265 266 266 267 267 268 268 269 270 270 271 272 273 273 274 275 277 278 279 280 281 282 284 285 287 289 290 291 291 292 292 292 293 293 293
238 238 238 240 243 244 242 240 239 238 238 241 247 249 244 239 240 242 242 242 243 242 239 240 242 242 240 239 241 242 244 245 247 248 250 252 253 254 255 256 257 258 259 259 260 261 262 263 263 264 264 265 266 266 267 268 268 269 269 270 271 271 272 273 273 274 275 276 276 278 280 282 284 286 288 290 291 291 292 292 292 292 293 293 293
239 241 242 242 244 246 246 244 242 242 243 244 246 247 246 245 246 243 241 243 247 249 248 246 246 245 243 243 243 244 243 243 244 246 248 250 251 252 254 255 256 257 258 259 260 261 262 262 263 264 264 265 266 267 268 268 268 269 269 269 270 270 271 271 272 272 273 274 275 278 281 284 286 288 290 291 292 293 293 294 294 294 294 293 293
239 240 242 243 244 245 245 245 244 244 243 244 245 246 247 249 249 248 246 246 248 250 251 249 247 246 247 247 248 248 248 248 248 248 248 249 251 252 253 254 255 257 258 259 260 262 263 263 264 265 265 266 267 268 268 268 268 268 268 268 269 269 269 270 270 271 272 274 276 279 282 285 288 290 291 292 293 294 294 294 294 294 293 293 293
Height
5917 5919 5921 5923 5925 5927 5930 5932 5933 5935 5937 5938 5940 5942 5943 5944 5946 5947 5948 5950 5951 5952 5953 5955 5956 5957 5959 5960 5962 5963 5964 5964 5965 5965 5966 5966 5967 5967 5967 5968 5968 5969 5969 5970 5970 5971 5971 5970 5971 5971 5971 5971 5970 5970 5970 5971 5971 5971 5972 5972 5973 5973 5973 5973 5973 5973 5973 5973 5973 5973 5973 5973 5973 5973 5972 5972 5972 5972 5971 5969 5967 5966 5965 5964 5962
5916 5918 5920 5922 5924 5925 5927 5929 5931 5933 5935 5937 5939 5940 5942 5943 5945 5946 5948 5949 5950 5951 5952 5954 5955 5957 5958 5960 5961 5962 5963 5964 5965 5965 5965 5966 5966 5967 5967 5967 5968 5968 5969 5969 5970 5970 5970 5970 5970 5970 5970 5971 5970 5970 5970 5970 5971 5971 5972 5972 5973 5973 5973 5973 5973 5973 5973 5973 5973 5974 5974 5974 5973 5973 5973 5973 5972 5972 5971 5969 5967 5966 5964 5963 5962
5915 5916 5918 5920 5922 5923 5925 5928 5930 5932 5934 5936 5937 5939 5941 5942 5944 5946 5947 5948 5949 5950 5952 5953 5954 5956 5958 5959 5961 5962 5963 5964 5964 5965 5965 5965 5966 5966 5967 5967 5967 5968 5968 5969 5969 5970 5970 5970 5970 5970 5970 5970 5970 5970 5970 5970 5971 5971 5972 5972 5972 5973 5973 5973 5973 5973 5973 5973 5973 5974 5974 5974 5973 5973 5973 5973 5972 5971 5970 5968 5967 5965 5964 5962 5960
5912 5914 5917 5918 5920 5921 5924 5926 5928 5931 5933 5935 5936 5938 5939 5941 5942 5944 5946 5947 5948 5949 5950 5952 5954 5955 5957 5959 5960 5961 5962 5963 5963 5964 5964 5965 5965 5966 5966 5966 5966 5967 5967 5968 5968 5969 5969 5969 5969 5969 5969 5969 5970 5970 5970 5970 5970 5971 5971 5972 5972 5972 5973 5973 5973 5973 5973 5973 5973 5973 5973 5973 5973 5973 5973 5972 5972 5971 5969 5967 5965 5963 5962 5961 5960
5910 5912 5914 5916 5918 5920 5922 5924 5927 5929 5931 5933 5935 5936 5938 5940 5941 5943 5944 5945 5947 5948 5949 5951 5952 5954 5956 5957 5958 5959 5961 5962 5962 5963 5964 5964 5965 5965 5965 5965 5965 5966 5966 5967 5967 5968 5968 5968 5968 5968 5968 5969 5969 5969 5969 5970 5970 5970 5971 5972 5972 5972 5972 5972 5972 5972 5973 5973 5973 5973 5973 5973 5973 5973 5973 5972 5971 5970 5968 5966 5964 5963 5961 5960 5959
5908 5910 5911 5913 5916 5918 5920 5922 5925 5928 5929 5931 5933 5934 5936 5938 5940 5941 5943 5944 5946 5947 5948 5949 5951 5952 5954 5955 5956 5958 5959 5960 5961 5962 5963 5963 5964 5964 5964 5964 5964 5965 5965 5966 5966 5967 5967 5967 5968 5968 5968 5968 5968 5968 5969 5969 5969 5970 5970 5971 5971 5972 5972 5972 5972 5972 5972 5972 5972 5972 5972 5972 5972 5972 5972 5972 5970 5969 5967 5966 5964 5962 5961 5960 5959
5906 5908 5909 5911 5914 5916 5918 5921 5923 5925 5927 5929 5930 5932 5934 5936 5938 5940 5941 5943 5944 5945 5947 5948 5949 5950 5952 5953 5954 5956 5957 5959 5960 5961 5962 5962 5963 5963 5963 5963 5963 5964 5964 5965 5965 5965 5966 5966 5967 5967 5967 5967 5967 5968 5968 5968 5969 5969 5970 5970 5971 5971 5971 5972 5972 5972 5972 5972 5972 5971 5971 5971 5971 5971 5971 5971 5970 5968 5967 5965 5964 5963 5961 5960 5959
5904 5906 5907 5909 5912 5915 5916 5918 5920 5923 5924 5926 5928 5930 5932 5934 5936 5938 5940 5942 5943 5944 5945 5947 5948 5949 5950 5951 5953 5954 5956 5957 5959 5960 5960 5961 5961 5961 5962 5962 5962 5962 5963 5963 5964 5964 5965 5965 5965 5966 5966 5966 5966 5967 5967 5967 5968 5968 5969 5970 5970 5971 5971 5971 5972 5972 5972 5972 5971 5971 5970 5970 5970 5970 5970 5970 5969 5968 5966 5965 5964 5963 5962 5960 5958
5902 5904 5905 5907 5910 5913 5914 5916 5918 5920 5922 5924 5926 5928 5930 5932 5934 5936 5938 5940 5941 5942 5944 5945 5946 5947 5948 5950 5951 5953 5955 5956 5957 5958 5959 5959 5960 5960 5961 5961 5961 5961 5962 5962 5962 5963 5963 5963 5964 5964 5964 5965 5965 5966 5966 5966 5967 5967 5968 5969 5970 5970 5971 5971 5971 5971 5971 5971 5971 5970 5970 5969 5969 5969 5969 5969 5968 5968 5966 5965 5963 5963 5962 5960 5958
5900 5902 5904 5905 5908 5910 5911 5913 5915 5917 5919 5922 5924 5926 5927 5929 5931 5934 5936 5937 5939 5940 5942 5943 5945 5946 5947 5948 5950 5952 5953 5955 5956 5957 5957 5958 5959 5959 5959 5960 5960 5960 5960 5960 5961 5961 5961 5962 5962 5963 5963 5963 5964 5964 5965 5965 5966 5966 5967 5968 5969 5969 5970 5970 5970 5971 5971 5971 5971 5970 5970 5969 5968 5968 5968 5967 5967 5967 5966 5964 5963 5962 5961 5959 5958
5899 5901 5902 5903 5905 5907 5909 5911 5913 5915 5917 5919 5921 5923 5925 5926 5929 5931 5933 5935 5937 5938 5940 5941 5943 5944 5945 5947 5948 5950 5952 5953 5954 5955 5956 5957 5957 5958 5958 5959 5959 5959 5959 5959 5959 5959 5960 5960 5961 5961 5961 5962 5962 5963 5964 5964 5964 5965 5966 5967 5968 5968 5969 5969 5969 5970 5970 5970 5970 5970 5969 5969 5968 5967 5967 5966 5966 5965 5964 5963 5962 5961 5959 5958 5957
5897 5899 5900 5901 5903 5905 5907 5909 5911 5913 5915 5917 5918 5920 5922 5924 5926 5928 5931 5932 5934 5936 5938 5939 5941 5942 5943 5945 5947 5949 5950 5951 5953 5953 5954 5955 5956 5957 5957 5957 5958 5958 5958 5958 5958 5958 5958 5959 5959 5959 5960 5960 5961 5961 5962 5963 5963 5964 5965 5966 5967 5967 5968 5968 5968 5969 5969 5969 5969 5969 5969 5968 5967 5966 5965 5965 5964 5963 5963 5962 5960 5960 5958 5957 5956
5893 5896 5897 5899 5901 5903 5905 5907 5909 5910 5912 5914 5916 5917 5919 5922 5924 5926 5928 5929 5931 5933 5935 5937 5938 5940 5941 5943 5945 5946 5948 5950 5951 5952 5952 5954 5955 5955 5956 5956 5957 5957 5957 5957 5957 5957 5957 5957 5957 5958 5958 5958 5959 5960 5961 5962 5962 5963 5964 5965 5965 5966 5966 5967 5967 5967 5967 5968 5968 5968 5967 5967 5966 5965 5964 5964 5963 5962 5961 5960 5958 5958 5957 5955 5954
5890 5892 5895 5897 5900 5901 5903 5904 5906 5908 5910 5912 5913 5915 5917 5919 5921 5922 5924 5926 5928 5931 5933 5934 5936 5937 5939 5940 5942 5944 5945 5947 5949 5949 5950 5952 5953 5954 5954 5955 5955 5955 5956 5956 5955 5955 5955 5955 5956 5956 5956 5957 5958 5958 5959 5960 5961 5962 5962 5963 5964 5964 5964 5965 5965 5965 5966 5966 5966 5966 5966 5966 5965 5964 5963 5963 5962 5961 5959 5958 5956 5955 5955 5953 5952
5887 5890 5893 5895 5897 5899 5900 5902 5903 5905 5907 5909 5911 5913 5914 5916 5918 5919 5921 5923 5925 5927 5929 5931 5933 5934 5936 5937 5939 5941 5943 5945 5946 5947 5948 5949 5951 5952 5953 5953 5954 5954 5953 5954 5953 5953 5954 5954 5954 5954 5955 5955 5956 5957 5958 5959 5959 5960 5961 5961 5962 5962 5963 5963 5963 5964 5964 5964 5965 5965 5965 5964 5963 5963 5962 5961 5961 5960 5958 5956 5954 5953 5952 5951 5950
5884 5887 5890 5893 5895 5897 5898 5899 5901 5902 5904 5906 5908 5910 5912 5914 5915 5916 5918 5920 5922 5924 5926 5928 5930 5931 5932 5934 5936 5938 5939 5942 5943 5944 5945 5947 5948 5950 5951 5951 5952 5951 5951 5951 5951 5951 5952 5952 5952 5952 5953 5953 5954 5955 5956 5957 5957 5958 5959 5959 5959 5960 5960 5961 5961 5961 5961 5962 5962 5962 5962 5962 5961 5961 5961 5960 5959 5958 5957 5955 5952 5951 5949 5948 5947
5882 5885 5888 5890 5893 5895 5896 5897 5898 5900 5901 5903 5905 5907 5909 5910 5912 5913 5914 5916 5918 5920 5922 5924 5926 5927 5929 5931 5933 5935 5936 5938 5940 5941 5942 5944 5946 5947 5948 5949 5949 5949 5949 5949 5949 5949 5949 5949 5949 5950 5951 5951 5952 5953 5954 5955 5955 5956 5956 5957 5957 5957 5958 5959 5959 5958 5958 5959 5959 5959 5959 5959 5958 5958 5958 5957 5956 5955 5954 5953 5951 5949 5947 5946 5944
5880 5883 5885 5887 5890 5892 5893 5895 5896 5897 5899 5901 5902 5904 5905 5907 5908 5910 5911 5913 5915 5916 5918 5920 5922 5924 5926 5928 5930 5931 5933 5935 5937 5938 5939 5942 5944 5945 5946 5946 5947 5947 5946 5946 5947 5947 5947 5947 5947 5948 5949 5949 5950 5951 5952 5952 5953 5953 5954 5954 5955 5955 5956 5956 5956 5956 5956 5956 5956 5957 5956 5956 5955 5955 5954 5953 5952 5951 5951 5950 5948 5946 5945 5944 5941
5878 5881 5883 5884 5886 5888 5890 5892 5894 5895 5896 5897 5898 5900 5902 5903 5905 5907 5908 5909 5911 5913 5914 5916 5918 5920 5922 5924 5926 5928 5929 5932 5934 5935 5937 5939 5941 5942 5943 5943 5944 5944 5944 5944 5944 5945 5945 5945 5946 5946 5947 5947 5948 5949 5949 5950 5951 5951 5951 5952 5952 5953 5953 5953 5953 5953 5953 5953 5953 5954 5953 5953 5952 5952 5951 5950 5949 5948 5947 5946 5945 5944 5942 5941 5939
5876 5878 5880 5880 5882 5885 5887 5889 5891 5893 5894 5894 5895 5896 5898 5900 5901 5903 5904 5906 5907 5909 5911 5913 5915 5917 5918 5920 5922 5924 5926 5928 5931 5932 5934 5936 5937 5938 5939 5940 5941 5941 5941 5941 5942 5942 5943 5943 5944 5944 5945 5945 5946 5947 5947 5948 5949 5949 5949 5949 5949 5950 5950 5950 5950 5950 5950 5949 5950 5950 5949 5950 5950 5949 5948 5947 5946 5945 5944 5942 5941 5940 5939 5938 5936
5872 5874 5876 5877 5879 5882 5884 5886 5888 5890 5890 5891 5891 5893 5894 5896 5898 5900 5901 5902 5904 5906 5908 5910 5912 5913 5915 5917 5919 5921 5923 5925 5928 5929 5930 5932 5934 5935 5936 5937 5937 5938 5938 5939 5939 5940 5941 5942 5942 5942 5943 5943 5944 5944 5945 5946 5947 5947 5947 5947 5946 5946 5946 5946 5946 5947 5947 5947 5946 5946 5945 5946 5946 5945 5944 5943 5942 5942 5940 5939 5938 5936 5935 5933 5932
5868 5871 5872 5874 5876 5879 5881 5882 5884 5886 5887 5888 5888 5890 5891 5893 5895 5896 5898 5899 5901 5904 5905 5907 5908 5910 5912 5914 5916 5918 5919 5921 5924 5926 5927 5928 5930 5931 5933 5934 5934 5935 5935 5936 5937 5938 5939 5939 5940 5940 5940 5940 5941 5942 5943 5944 5944 5944 5944 5944 5943 5943 5943 5943 5944 5944 5944 5944 5943 5942 5941 5941 5940 5940 5939 5939 5938 5937 5936 5935 5934 5933 5931 5929 5927
5865 5867 5869 5871 5873 5876 5877 5879 5880 5882 5883 5884 5885 5886 5888 5889 5891 5893 5895 5896 5899 5901 5902 5904 5905 5907 5909 5911 5913 5915 5916 5918 5920 5922 5923 5925 5926 5928 5929 5930 5931 5932 5933 5934 5935 5935 5936 5937 5937 5938 5938 5938 5938 5939 5940 5941 5941 5941 5941 5940 5940 5940 5940 5940 5940 5941 5941 5940 5939 5938 5937 5936 5936 5936 5936 5935 5934 5933 5932 5930 5929 5928 5927 5925 5923
5861 5863 5866 5868 5870 5872 5873 5875 5877 5878 5879 5880 5881 5883 5884 5886 5888 5890 5892 5893 5895 5897 5899 5900 5902 5904 5906 5908 5909 5911 5913 5915 5917 5918 5920 5921 5923 5924 5926 5927 5929 5930 5930 5931 5932 5933 5933 5934 5934 5934 5935 5935 5934 5935 5936 5937 5937 5937 5937 5937 5937 5937 5937 5936 5936 5937 5937 5936 5935 5934 5933 5933 5933 5933 5932 5931 5930 5929 5928 5927 5925 5923 5922 5920 5918
5857 5860 5862 5865 5867 5868 5870 5872 5873 5874 5875 5877 5878 5879 5881 5882 5885 5887 5888 5890 5892 5894 5895 5897 5899 5901 5903 5905 5906 5908 5910 5911 5913 5915 5916 5917 5919 5921 5923 5925 5926 5927 5928 5929 5929 5930 5930 5930 5930 5930 5931 5931 5931 5931 5932 5933 5933 5934 5934 5934 5934 5934 5933 5932 5932 5932 5932 5932 5931 5931 5930 5930 5929 5929 5928 5927 5926 5925 5924 5922 5920 5919 5917 5915 5914
5853 5856 5859 5861 5863 5865 5867 5868 5870 5871 5872 5873 5874 5876 5877 5879 5881 5883 5885 5887 5889 5890 5892 5894 5896 5898 5900 5902 5903 5905 5906 5908 5910 5911 5913 5914 5916 5918 5920 5922 5923 5924 5925 5925 5926 5926 5926 5926 5927 5927 5928 5928 5928 5928 5929 5929 5929 5930 5930 5930 5930 5930 5929 5928 5928 5928 5928 5928 5928 5927 5927 5926 5925 5924 5923 5922 5922 5920 5919 5917 5915 5914 5912 5911 5910
5849 5852 5855 5857 5859 5861 5863 5865 5866 5867 5868 5869 5871 5872 5874 5876 5878 5880 5882 5884 5885 5887 5889 5891 5893 5895 5897 5898 5900 5901 5903 5904 5906 5907 5909 5911 5913 5915 5917 5918 5920 5921 5922 5922 5923 5923 5923 5923 5924 5924 5925 5925 5926 5926 5926 5926 5926 5926 5926 5926 5926 5925 5925 5925 5925 5924 5924 5924 5924 5923 5922 5921 5920 5920 5919 5918 5917 5916 5914 5913 5911 5910 5909 5907 5906
5846 5849 5851 5853 5856 5858 5860 5861 5862 5863 5864 5866 5867 5869 5871 5873 5875 5877 5879 5880 5882 5884 5886 5888 5890 5892 5893 5895 5896 5898 5899 5901 5903 5904 5907 5909 5910 5912 5914 5915 5917 5918 5918 5919 5919 5919 5919 5920 5920 5921 5922 5922 5923 5923 5924 5924 5923 5923 5922 5922 5921 5920 5921 5921 5921 5920 5920 5919 5919 5918 5917 5917 5916 5916 5915 5914 5912 5911 5910 5909 5907 5906 5905 5904 5902
5842 5845 5847 5849 5852 5854 5856 5857 5858 5859 5860 5862 5864 5866 5869 5870 5872 5874 5876 5877 5879 5882 5883 5885 5886 5888 5889 5891 5893 5894 5896 5898 5900 5901 5904 5906 5907 5909 5911 5912 5913 5914 5915 5915 5915 5915 5916 5917 5917 5918 5918 5919 5919 5919 5920 5920 5919 5918 5918 5918 5917 5916 5916 5917 5916 5916 5916 5915 5914 5913 5913 5913 5912 5912 5910 5909 5908 5907 5906 5905 5903 5902 5901 5899 5897
5838 5841 5843 5846 5848 5850 5852 5853 5854 5855 5857 5859 5862 5864 5866 5867 5869 5871 5873 5875 5877 5879 5880 5882 5883 5885 5886 5888 5890 5892 5893 5895 5897 5899 5901 5903 5904 5906 5907 5909 5910 5910 5910 5911 5911 5912 5913 5913 5913 5914 5915 5915 5915 5915 5916 5916 5915 5914 5914 5913 5912 5912 5912 5912 5911 5911 5911 5910 5909 5908 5908 5907 5907 5906 5905 5904 5903 5903 5902 5900 5898 5897 5895 5893 5891
5834 5838 5840 5842 5845 5847 5848 5849 5851 5852 5854 5857 5859 5861 5862 5864 5866 5868 5870 5872 5874 5875 5877 5879 5880 5881 5883 5886 5888 5889 5890 5892 5894 5895 5897 5899 5901 5903 5904 5905 5905 5906 5906 5907 5908 5909 5909 5910 5910 5910 5910 5911 5911 5911 5911 5911 5910 5909 5909 5909 5908 5907 5907 5907 5905 5904 5904 5903 5901 5900 5901 5902 5902 5902 5901 5900 5898 5897 5896 5894 5893 5891 5888 5886 5885
5831 5834 5837 5839 5841 5843 5844 5846 5848 5849 5852 5854 5857 5858 5859 5861 5863 5865 5867 5869 5870 5872 5873 5875 5877 5878 5880 5883 5884 5885 5887 5889 5891 5892 5894 5895 5897 5898 5900 5901 5901 5901 5902 5903 5904 5905 5906 5906 5906 5906 5906 5906 5906 5906 5906 5906 5906 5904 5903 5903 5903 5902 5901 5901 5899 5897 5895 5894 5893 5890 5889 5892 5894 5895 5895 5894 5892 5890 5889 5888 5886 5884 5882 5880 5879
5828 5831 5833 5834 5837 5839 5841 5842 5845 5846 5848 5851 5853 5854 5856 5858 5859 5862 5864 5865 5867 5868 5870 5872 5873 5875 5877 5879 5881 5882 5884 5886 5887 5889 5890 5891 5892 5894 5895 5896 5897 5897 5898 5899 5900 5901 5901 5902 5902 5902 5902 5902 5901 5900 5900 5900 5900 5899 5897 5896 5896 5896 5896 5895 5893 5891 5890 5889 5887 5883 5881 5882 5885 5886 5886 5886 5885 5884 5883 5881 5880 5878 5877 5875 5873
5824 5826 5828 5830 5833 5836 5837 5839 5841 5843 5844 5847 5849 5851 5852 5854 5856 5858 5860 5861 5863 5864 5866 5868 5870 5872 5874 5876 5877 5879 5880 5882 5883 5884 5885 5886 5887 5889 5890 5891 5892 5893 5894 5895 5896 5896 5897 5898 5898 5898 5897 5897 5896 5895 5894 5894 5893 5892 5891 5890 5890 5890 5890 5889 5887 5886 5885 5885 5884 5882 5879 5878 5880 5880 5880 5879 5879 5878 5876 5875 5874 5873 5871 5869 5868
5819 5821 5824 5827 5829 5831 5833 5835 5837 5838 5840 5843 5845 5847 5848 5851 5853 5855 5856 5857 5858 5860 5862 5864 5866 5868 5870 5872 5873 5875 5876 5877 5878 5879 5880 5881 5883 5884 5885 5886 5888 5889 5889 5890 5891 5891 5892 5892 5893 5892 5892 5891 5890 5889 5888 5887 5886 5885 5885 5885 5885 5884 5883 5882 5880 5880 5880 5880 5881 5879 5877 5876 5876 5876 5875 5874 5873 5872 5870 5869 5868 5867 5865 5864 5862
5814 5816 5819 5821 5823 5826 5828 5830 5832 5833 5835 5839 5841 5842 5845 5848 5849 5850 5851 5853 5855 5857 5858 5860 5862 5864 5866 5867 5869 5870 5871 5872 5873 5874 5875 5876 5878 5879 5880 5882 5883 5884 5884 5885 5885 5886 5887 5887 5887 5886 5885 5885 5884 5883 5882 5881 5880 5879 5879 5879 5879 5877 5875 5874 5873 5873 5873 5875 5875 5875 5873 5873 5872 5871 5870 5869 5868 5866 5865 5864 5863 5861 5860 5858 5856
5809 5812 5814 5817 5819 5821 5823 5825 5827 5829 5832 5835 5836 5838 5841 5843 5844 5845 5847 5849 5851 5852 5853 5854 5857 5858 5860 5862 5863 5865 5866 5867 5868 5868 5870 5871 5873 5874 5876 5877 5877 5878 5878 5879 5880 5880 5881 5881 5880 5880 5879 5879 5878 5877 5876 5876 5875 5873 5873 5875 5875 5873 5871 5870 5870 5869 5870 5870 5870 5870 5869 5868 5867 5866 5865 5864 5863 5861 5860 5858 5857 5855 5854 5852 5850
5804 5808 5811 5813 5815 5817 5818 5821 5823 5825 5827 5829 5831 5834 5837 5838 5839 5841 5843 5844 5846 5847 5848 5849 5851 5853 5854 5856 5858 5859 5860 5861 5861 5863 5864 5866 5868 5869 5870 5870 5871 5871 5872 5874 5874 5874 5874 5874 5873 5873 5873 5873 5872 5871 5871 5870 5869 5868 5869 5871 5871 5869 5868 5869 5868 5868 5867 5866 5865 5865 5864 5863 5862 5861 5859 5858 5857 5855 5854 5852 5850 5849 5847 5845 5844
5799 5803 5806 5808 5810 5812 5814 5816 5818 5820 5822 5824 5826 5830 5832 5833 5835 5836 5838 5838 5840 5841 5843 5844 5846 5848 5849 5850 5852 5853 5854 5855 5856 5858 5859 5861 5862 5863 5863 5863 5864 5865 5867 5868 5868 5868 5868 5867 5867 5867 5867 5867 5867 5865 5865 5865 5864 5863 5864 5865 5865 5864 5863 5864 5863 5862 5862 5860 5860 5859 5858 5857 5856 5855 5853 5852 5851 5849 5847 5845 5844 5842 5840 5838 5836
5794 5797 5800 5803 5804 5806 5808 5810 5812 5814 5817 5819 5821 5824 5827 5828 5830 5831 5832 5833 5835 5836 5838 5839 5841 5842 5843 5844 5845 5846 5848 5849 5850 5852 5853 5854 5855 5855 5856 5857 5858 5859 5860 5860 5861 5861 5861 5861 5860 5861 5861 5861 5861 5860 5859 5859 5859 5858 5857 5858 5858 5857 5857 5857 5856 5856 5855 5854 5853 5853 5852 5851 5850 5849 5847 5845 5844 5842 5840 5838 5837 5835 5833 5831 5829
5788 5792 5794 5796 5798 5800 5803 5805 5808 5810 5812 5814 5816 5818 5820 5822 5824 5825 5826 5828 5829 5831 5832 5834 5835 5836 5837 5837 5838 5840 5841 5842 5844 5845 5846 5847 5848 5849 5849 5850 5851 5852 5853 5853 5854 5854 5854 5854 5854 5855 5855 5855 5855 5855 5854 5853 5853 5852 5852 5851 5851 5850 5850 5850 5850 5849 5848 5847 5847 5846 5845 5844 5843 5842 5840 5838 5837 5835 5833 5832 5830 5828 5826 5824 5821
5782 5785 5789 5791 5793 5794 5796 5799 5802 5805 5807 5809 5811 5812 5814 5816 5817 5819 5820 5822 5823 5825 5826 5827 5827 5828 5829 5830 5832 5833 5835 5836 5837 5838 5839 5840 5841 5842 5843 5843 5844 5845 5846 5846 5847 5847 5848 5848 5848 5849 5848 5848 5848 5848 5848 5847 5847 5847 5846 5846 5845 5844 5844 5844 5844 5843 5842 5841 5840 5839 5838 5837 5836 5835 5833 5832 5830 5828 5826 5824 5822 5820 5818 5816 5813
5775 5778 5782 5785 5787 5787 5787 5790 5794 5798 5801 5803 5805 5806 5807 5808 5810 5811 5813 5815 5816 5817 5818 5819 5820 5822 5823 5824 5826 5827 5829 5830 5831 5832 5833 5834 5834 5835 5836 5837 5837 5838 5839 5840 5840 5841 5841 5842 5842 5842 5842 5842 5842 5841 5841 5841 5841 5841 5840 5840 5839 5839 5838 5838 5837 5836 5835 5834 5833 5832 5831 5830 5828 5827 5826 5824 5823 5820 5818 5817 5815 5812 5810 5808 5805
5769 5772 5776 5779 5780 5781 5783 5786 5789 5792 5794 5797 5799 5800 5801 5802 5803 5805 5806 5807 5808 5810 5811 5813 5815 5816 5817 5818 5820 5821 5823 5824 5825 5825 5826 5827 5828 5829 5829 5830 5831 5832 5833 5833 5834 5834 5835 5835 5836 5836 5836 5836 5836 5836 5836 5835 5835 5834 5834 5833 5833 5832 5831 5831 5830 5829 5828 5827 5825 5824 5823 5822 5821 5819 5818 5816 5815 5813 5810 5808 5807 5804 5802 5800 5797
5762 5766 5769 5771 5774 5777 5780 5784 5786 5787 5789 5791 5792 5794 5796 5797 5798 5799 5800 5801 5801 5803 5804 5806 5808 5810 5811 5813 5814 5815 5816 5817 5818 5818 5819 5820 5821 5822 5822 5823 5824 5825 5826 5827 5827 5827 5828 5829 5829 5830 5830 5829 5829 5829 5829 5829 5828 5828 5827 5826 5826 5825 5824 5823 5822 5822 5821 5820 5818 5817 5815 5814 5813 5812 5810 5808 5807 5805 5803 5801 5798 5796 5794 5792 5790
5755 5758 5761 5765 5769 5772 5775 5778 5780 5783 5785 5786 5786 5788 5791 5792 5793 5794 5796 5797 5797 5797 5798 5800 5802 5804 5806 5807 5808 5809 5810 5811 5811 5812 5813 5814 5815 5815 5816 5817 5818 5818 5819 5820 5821 5821 5822 5822 5823 5823 5822 5822 5822 5822 5822 5821 5821 5820 5819 5818 5818 5817 5816 5815 5815 5814 5813 5812 5811 5809 5808 5807 5805 5804 5802 5800 5798 5797 5795 5793 5790 5788 5786 5784 5781
5750 5752 5756 5760 5764 5767 5769 5772 5775 5777 5780 5781 5781 5783 5785 5787 5788 5789 5790 5792 5794 5794 5794 5794 5795 5797 5798 5799 5800 5801 5802 5804 5805 5805 5806 5807 5808 5809 5810 5810 5811 5812 5813 5814 5814 5814 5815 5815 5815 5815 5815 5814 5814 5814 5813 5813 5812 5811 5811 5810 5810 5809 5808 5808 5807 5806 5805 5804 5803 5802 5800 5799 5797 5795 5794 5792 5790 5788 5786 5784 5782 5780 5778 5775 5773
5746 5749 5753 5756 5759 5761 5763 5765 5767 5770 5773 5775 5776 5777 5779 5782 5783 5784 5785 5787 5789 5791 5790 5789 5789 5789 5789 5789 5791 5792 5794 5796 5798 5799 5799 5800 5801 5802 5803 5804 5804 5805 5806 5806 5806 5807 5807 5807 5807 5807 5807 5806 5806 5806 5805 5805 5804 5803 5803 5802 5802 5801 5801 5800 5799 5798 5797 5796 5795 5793 5792 5790 5789 5787 5785 5784 5782 5780 5778 5776 5773 5771 5769 5767 5764
5741 5744 5748 5751 5754 5756 5757 5758 5760 5763 5767 5770 5771 5772 5773 5776 5779 5780 5781 5782 5784 5785 5785 5785 5785 5785 5785 5785 5785 5785 5787 5789 5791 5792 5793 5794 5795 5795 5796 5797 5797 5798 5798 5799 5799 5799 5799 5799 5799 5799 5799 5798 5798 5797 5797 5796 5796 5795 5795 5795 5794 5793 5792 5792 5791 5790 5788 5787 5786 5784 5783 5782 5780 5779 5777 5775 5773 5771 5769 5767 5764 5762 5760 5758 5755
5735 5738 5741 5744 5747 5750 5752 5754 5756 5758 5761 5763 5765 5766 5768 5771 5773 5775 5776 5776 5777 5778 5779 5780 5781 5782 5783 5783 5782 5782 5782 5784 5785 5786 5787 5787 5788 5788 5789 5790 5790 5791 5791 5791 5792 5792 5791 5791 5791 5791 5790 5790 5790 5790 5789 5789 5788 5788 5787 5786 5786 5785 5784 5783 5782 5781 5779 5778 5777 5775 5774 5773 5771 5769 5768 5766 5764 5762 5760 5757 5755 5753 5750 5748 5745
5729 5731 5734 5737 5741 5743 5746 5748 5749 5751 5753 5756 5758 5760 5762 5764 5765 5767 5768 5769 5770 5771 5772 5774 5775 5776 5777 5777 5777 5777 5778 5779 5779 5779 5779 5780 5780 5781 5782 5783 5783 5784 5784 5784 5784 5784 5784 5783 5783 5783 5783 5782 5782 5782 5781 5781 5780 5779 5779 5778 5777 5776 5775 5774 5773 5772 5770 5769 5768 5766 5764 5763 5761 5760 5758 5756 5754 5751 5749 5747 5745 5743 5740 5737 5735